This is the latest recevied weather packets stored in our database for station/object KI7JYE. If no packets are shown the sender has not sent any weather packets the latest 10 day(s).
| Time | Temp. | Humidity | Pressure | Rain* | Wind** | Luminosity | Snow |
|---|---|---|---|---|---|---|---|
| 1777869201 | 25.56° C | 40% | 1006.1 hPa | 0 mm | - | 0 W/m² | - |
| 1777868898 | 25.56° C | 40% | 1006 hPa | 0 mm | - | 0 W/m² | - |
| 1777868594 | 25° C | 42% | 1005.9 hPa | 0 mm | - | 0 W/m² | - |
| 1777868291 | 25° C | 43% | 1005.9 hPa | 0 mm | - | 0 W/m² | - |
| 1777867987 | 24.44° C | 45% | 1005.9 hPa | 0 mm | - | 0 W/m² | - |
| 1777867683 | 23.33° C | 47% | 1005.9 hPa | 0 mm | - | 0 W/m² | - |
| 1777867381 | 23.33° C | 50% | 1005.8 hPa | 0 mm | - | 0 W/m² | - |
| 1777867076 | 23.33° C | 50% | 1005.9 hPa | 0 mm | - | 0 W/m² | - |
| 1777866774 | 22.78° C | 52% | 1005.7 hPa | 0 mm | - | 0 W/m² | - |
| 1777866471 | 22.78° C | 53% | 1005.6 hPa | 0 mm | - | 0 W/m² | - |
| 1777866169 | 22.78° C | 53% | 1005.6 hPa | 0 mm | - | 0 W/m² | - |
| 1777864654 | 23.89° C | 53% | 1005.4 hPa | 0 mm | - | 3 W/m² | - |
| 1777864352 | 23.89° C | 52% | 1005.4 hPa | 0 mm | - | 6 W/m² | - |
| 1777863745 | 25.56° C | 47% | 1005.3 hPa | 0 mm | - | 11 W/m² | - |
| 1777863138 | 27.22° C | 42% | 1005.2 hPa | 0 mm | - | 16 W/m² | - |
| 1777846771 | 32.22° C | 29% | 1007 hPa | 0 mm | - | 567 W/m² | - |
| 1777842834 | 31.11° C | 35% | 1007.7 hPa | 0 mm | - | 601 W/m² | - |
| 1777842227 | 31.11° C | 36% | 1007.9 hPa | 0 mm | - | 604 W/m² | - |
| 1777841315 | 31.11° C | 35% | 1008 hPa | 0 mm | - | 637 W/m² | - |
| 1777840709 | 30.56° C | 34% | 1008.1 hPa | 0 mm | - | 621 W/m² | - |
| 1777840407 | 31.11° C | 35% | 1008.5 hPa | 0 mm | - | 633 W/m² | - |
| 1777840103 | 31.11° C | 37% | 1008.3 hPa | 0 mm | - | 649 W/m² | - |
| 1777839802 | 30.56° C | 36% | 1008.5 hPa | 0 mm | - | 652 W/m² | - |
| 1777839500 | 30.56° C | 36% | 1008.5 hPa | 0 mm | - | 632 W/m² | - |
| 1777838894 | 30.56° C | 38% | 1008.7 hPa | 0 mm | - | 589 W/m² | - |
* Rain latest hour (hover to see other rain measurements)
** Current wind speed in m/s (hover to see current wind gust speed)